Location: Anla
(43.0026°N, 0.5854°E)
Time: 10:31:51
(UTC+00:00)

Daily predictions for brighter satellites

Satellite Brightness Start Highest point End
(mag) Time Altitude Azimuth Time Altitude Azimuth Time Altitude Azimuth
IRAS Rocket 4.4 19:37:24 10° SSE 19:42:46 61° ENE 19:48:12 10° N
SL-16 R/B 4.0 19:39:59 10° N 19:43:44 18° NE 19:47:26 10° E
SL-24 R/B 4.3 19:40:55 10° NNE 19:45:13 58° E 19:50:01 10° S
Okean 1 Rocket 3.1 19:42:16 10° S 19:46:39 87° WNW 19:51:06 10° N
Cosmos 2084 Rocket 4.1 19:47:29 10° NNW 19:51:29 41° NE 19:55:31 10° ESE
COSMOS 2406 4.1 19:51:16 10° SSE 19:56:06 29° ESE 20:00:57 10° NE
SL-4 R/B 4.4 19:55:11 10° W 19:57:05 13° SW 19:59:01 10° SSW
Cosmos 1782 2.9 19:54:41 10° SSE 19:58:00 42° E 20:01:22 10° NNE
Okean-O 3.9 19:55:11 10° ESE 19:58:42 24° ENE 20:02:14 10° NNE
CZ-4B R/B 4.0 19:54:47 10° S 19:58:48 79° W 20:02:51 10° NNW
CZ-4 R/B 1.1 19:55:15 10° SSE 19:58:52 86° WSW 20:02:31 10° NNW
MetOp-B 4.3 19:53:56 10° SSE 19:59:09 57° ENE 20:04:24 10° N
Cosmos 1980 Rocket 2.2 19:54:18 10° NNW 20:00:02 87° ENE 20:05:42 10° SSE
CSL-04 Rocket 4.2 19:58:28 10° S 20:03:53 63° WSW 20:09:17 10° NNW
ASTEX 1 3.9 19:59:57 10° S 20:04:52 65° W 20:09:48 10° NNW
Spot 2 Rocket 4.2 20:02:06 10° SE 20:06:35 36° ENE 20:11:09 10° N
Cosmos 1725 Rocket 4.0 20:01:34 10° S 20:07:48 75° E 20:14:02 10° N
Cosmos 2333 Rocket 3.7 20:07:14 10° N 20:11:50 24° NE 20:16:16 11° ESE
ERS-1 Rocket 3.0 20:07:29 10° SSE 20:12:29 86° ENE 20:17:32 10° NNW
ATLAS 3B R/B 3.6 20:05:29 10° NW 20:12:50 50° WSW 20:19:42 10° S
USA 305 3.1 20:15:07 10° WNW 20:19:05 49° SW 20:21:49 16° SSE
Tsikada Rocket 4.1 20:13:55 10° N 20:19:59 57° ENE 20:25:37 12° SSE
Cosmos 2016 Rocket 4.0 20:16:09 10° S 20:22:24 87° E 20:28:37 10° N
Cosmos 1461 3.0 20:20:34 10° S 20:24:01 38° ESE 20:27:28 10° NE
CZ-4B R/B 3.3 20:19:53 10° SSE 20:25:33 90° W 20:31:12 10° NNW
Cosmos 2360 Rocket 4.0 20:21:36 10° N 20:25:35 19° NE 20:29:32 10° E
CZ-4C R/B 4.1 20:24:18 10° W 20:28:00 27° NW 20:32:32 10° NNE
Cosmos 1992 Rocket 3.9 20:23:31 10° S 20:28:40 67° ESE 20:33:50 10° NNE
Meteor 2-12 Rocket 4.4 20:26:10 10° N 20:32:17 79° E 20:38:06 11° SSE
ISS -1.2 20:32:55 10° WNW 20:35:31 21° N 20:38:09 10° NE
YAOGAN 11 4.2 20:31:41 10° NNE 20:36:04 55° E 20:40:12 11° S
Cosmos 1437 Rocket 3.4 20:36:40 24° SE 20:37:53 31° E 20:41:04 10° NNE
Cosmos 2219 Rocket 4.2 20:35:28 10° N 20:38:49 16° NE 20:42:11 10° E
Gbstr 26 Del rocket 4.1 20:40:22 10° WNW 20:45:00 37° SW 20:47:30 20° S
DEBRIS 4.3 20:42:51 10° WNW 20:45:39 43° N 20:52:59 10° ENE
Cosmos 2098 Rocket 4.4 20:44:22 21° ESE 20:45:46 25° E 20:49:20 10° NE
SL-08 R/B 3.5 20:41:34 10° N 20:46:23 76° WNW 20:51:05 10° SSW
NOSS 3-3 (A) 4.1 20:42:03 10° SW 20:47:05 63° NW 20:53:06 10° NNE
Cosmos 1626 Rocket 3.7 20:44:20 10° N 20:48:40 58° E 20:51:00 26° SSE
Cosmos 1743 4.1 20:46:33 10° NNW 20:49:08 26° W 20:51:41 10° SSW
Terra 2.7 20:45:39 10° S 20:50:07 45° W 20:54:39 10° NNW
Delta 2 Rocket 4.3 20:51:52 10° SW 20:53:26 18° SSW 20:53:26 18° SSW
Cosmos 2151 3.2 20:52:38 10° N 20:56:39 49° E 20:58:09 32° SE
Cosmos 909 Rocket 4.4 20:51:05 10° SW 20:57:24 67° NW 21:03:49 10° NNE
Cosmos 2061 Rocket 4.1 20:51:15 10° S 20:57:29 81° W 21:03:48 10° N
Cosmos 2322 Rocket 3.3 20:52:42 10° N 20:57:48 33° NE 21:00:46 20° ESE
Cosmos 2082 Rocket 3.4 20:53:34 10° SW 20:59:00 44° WNW 21:04:29 10° NNE
Cosmos 2237 4.4 20:53:32 10° NNW 20:59:15 71° WSW 21:03:03 22° S
ADEOS 4.4 20:54:57 11° S 20:59:51 48° W 21:04:55 10° NNW
Cosmos 2369 4.2 20:59:37 10° NNW 21:05:11 55° WSW 21:09:06 20° S
Cosmos 1375 Rocket 4.5 20:58:58 10° SSW 21:05:26 84° ESE 21:12:02 10° NNE
CZ-4B R/B 2.6 21:09:42 47° ESE 21:10:16 55° ENE 21:13:39 10° N
Milstar 3 4.4 21:06:27 10° SW 21:11:20 19° S 21:13:16 18° S
USA 186 2.2 21:11:04 38° SW 21:11:34 44° W 21:14:13 10° NNW
Cosmos 540 Rocket 4.5 21:13:16 26° ESE 21:13:29 26° E 21:17:43 10° NE
Okean O Rocket 2.1 21:11:15 22° S 21:13:48 52° W 21:18:02 10° NNW
DELTA 2 R/B (1) 3.6 21:16:29 10° W 21:21:58 60° S 21:24:09 35° ESE
Cosmos 1805 3.4 21:19:27 10° N 21:22:21 42° ENE 21:22:21 42° ENE
Cosmos 2278 3.8 21:18:19 10° NNW 21:24:02 70° ENE 21:26:23 36° SE
Cosmos 1544 Rocket 4.1 21:22:18 17° SSW 21:25:27 56° W 21:29:43 10° N
CZ-2C R/B 3.2 21:27:14 33° NE 21:27:14 33° NE 21:29:10 10° N
Meteor 1-5 Rocket 4.5 21:21:27 10° N 21:27:09 57° ENE 21:29:21 36° SE
SL-16 R/B 2.1 21:22:51 10° NNW 21:28:34 86° WSW 21:30:55 37° SSE
Okean 1-7 Rocket 3.9 21:25:26 10° N 21:29:48 50° ENE 21:30:35 44° ESE
NOSS 3-4 (A) 4.0 21:27:52 10° NNW 21:34:39 67° NE 21:38:39 31° SE
Okean-O 4.0 21:32:20 19° SSW 21:34:48 32° W 21:38:46 10° NNW
Cosmos 2034 Rocket 4.4 21:32:54 35° SE 21:34:56 46° E 21:40:56 10° NNE
NOSS 3-4 (C) 4.0 21:28:29 10° NNW 21:35:18 66° NE 21:39:18 31° SE
Cosmos 1933 4.0 21:37:02 28° SW 21:38:41 46° WNW 21:42:22 10° N
Ariane Rocket 2.9 21:38:06 42° S 21:39:50 86° WSW 21:44:56 10° NNW
COSMOS 2406 4.3 21:34:41 10° SW 21:40:09 44° WNW 21:45:38 10° NNE
SPOT 3 Rocket 3.8 21:41:43 34° SSW 21:43:49 61° WSW 21:48:55 10° NNW
Nadezhda 4 Rocket 3.9 21:47:59 10° N 21:54:08 84° E 21:56:12 44° SSE
Cosmos 1763 Rocket 3.4 21:53:12 52° S 21:54:24 70° ESE 21:59:39 10° NNE
Helios 1B rocket 4.2 21:55:11 17° NE 21:55:11 17° NE 21:56:58 10° NNE
Okean 1 3.3 21:56:18 62° NNE 21:56:18 62° NNE 21:59:21 10° N
Cosmos 2333 Rocket 2.5 21:50:54 10° NNW 21:56:30 58° WSW 21:58:17 41° SSW
DNEPR-1 R/B 4.4 21:51:59 10° NW 21:57:43 82° WSW 21:59:54 45° SSE
Cosmos 1825 Rocket 3.3 21:54:38 10° N 21:59:00 86° E 21:59:17 78° SSE
Cosmos 1833 4.1 21:57:59 44° S 21:59:49 77° ESE 22:05:28 10° NNE
Cosmos 1536 4.5 21:57:00 10° NNE 21:59:12 21° NE 21:59:12 21° NE
Cosmos 1953 Rocket 3.8 22:00:48 10° N 22:04:56 55° ENE 22:04:56 55° ENE
Cosmos 990 Rocket 4.1 22:01:01 10° NNW 22:06:08 60° ENE 22:06:54 54° ESE
CZ-4B R/B 4.1 22:05:27 36° SW 22:06:41 43° W 22:11:16 10° NNW
Cosmos 2360 Rocket 2.2 22:04:31 10° NNW 22:10:12 78° WSW 22:11:23 57° S
USA 290 3.8 22:12:10 34° NW 22:12:10 34° NW 22:14:34 10° N
Cosmos 2195 Rocket 4.4 22:06:09 10° N 22:12:22 79° E 22:13:53 54° SSE
ISS -1.3 22:10:34 10° NW 22:13:10 20° N 22:14:19 17° NE
Cosmos 2058 Rocket 3.6 22:14:25 46° ENE 22:14:25 46° ENE 22:17:58 10° NNE
BREEZE-M DEB (TANK) 4.5 22:12:27 10° NW 22:13:11 14° NNW 22:13:11 14° NNW
Cosmos 2026 Rocket 4.0 22:10:23 10° N 22:16:47 72° E 22:18:17 53° SE
Cosmos 2333 4.1 22:12:12 10° NNW 22:17:57 81° WSW 22:19:00 61° S
Cosmos 1777 Rocket 4.3 22:15:28 10° NNW 22:20:33 54° WSW 22:21:18 49° SW
Helios 1A 3.4 22:19:31 10° NNE 22:22:30 50° NNE 22:22:30 50° NNE
Cosmos 2219 Rocket 2.1 22:17:56 10° NNW 22:23:38 84° ENE 22:24:29 66° SE
Cosmos 1076 Rocket 3.8 22:24:06 10° NNW 22:28:03 60° WNW 22:28:03 60° WNW
Cosmos 1503 Rocket 4.1 22:24:06 10° NNW 22:29:11 59° WSW 22:29:38 57° SW
ARIANE 5 R/B 3.9 22:32:16 29° ENE 22:32:16 29° ENE 22:35:58 10° N
RESURS DK-1 4.1 22:29:30 10° N 22:32:35 23° NE 22:32:35 23° NE
ALOS 2 4.2 22:33:58 25° ENE 22:33:58 25° ENE 22:37:25 10° NNE
Cosmos 2322 Rocket 2.9 22:36:37 10° NW 22:41:52 40° WSW 22:42:34 38° WSW
Cosmos 1354 Rocket 4.0 22:38:23 10° NNW 22:43:35 66° WSW 22:43:43 65° WSW
Cosmos 372 Rocket 4.1 22:42:48 10° NNW 22:47:51 61° ENE 22:47:53 61° ENE
Spot 4 4.4 22:51:57 47° ENE 22:51:57 47° ENE 22:56:22 10° N
Meteor 2-9 Rocket 4.4 22:50:27 10° N 22:55:46 54° ENE 22:55:55 54° E
CZ-2C R/B 4.3 22:58:57 20° E 23:00:03 21° ENE 23:03:51 10° NNE
Cosmos 2237 Rocket 3.8 22:55:38 10° N 23:00:19 26° NE 23:02:17 21° E
Aureole 1 Rocket 4.0 22:55:50 10° NNW 23:01:50 77° WSW 23:02:46 66° SSW
Cosmos 1092 Rocket 4.2 22:58:06 10° NNW 23:04:08 59° W 23:05:07 53° SW
Cosmos 2142 Rocket 4.5 23:05:17 63° ESE 23:05:46 65° E 23:11:56 10° NNE
ARGOS Delta rocket 4.3 23:01:46 10° NNE 23:06:31 59° ENE 23:06:31 59° ENE
Cosmos 2180 Rocket 4.5 23:06:37 62° ESE 23:07:04 64° E 23:13:18 10° NNE
Cosmos 1937 Rocket 3.9 23:04:26 10° N 23:09:26 51° ENE 23:09:26 51° ENE
Cosmos 2227 Rocket 4.2 23:11:04 15° E 23:11:04 15° E 23:13:17 10° ENE
Cosmos-2242 4.4 23:10:18 29° WNW 23:10:18 29° WNW 23:13:43 10° NNW
SL-16 R/B 4.5 23:09:55 10° WNW 23:11:41 11° W 23:12:46 11° WSW
COSMOS 2428 2.7 23:06:08 10° NNW 23:11:50 67° ENE 23:12:10 66° E
NOSS 0 Rocket 4.2 23:08:18 10° NNW 23:14:24 56° ENE 23:15:26 50° E
Meteor 1-11 Rocket 4.1 23:10:04 10° N 23:15:34 52° ENE 23:15:45 52° E
Meteor 1-10 Rocket 4.4 23:17:23 63° E 23:17:25 63° E 23:23:17 10° NNE
Cosmos 2263 Rocket 4.5 23:20:54 11° E 23:20:54 11° E 23:21:37 10° ENE
Cosmos 1812 Rocket 4.3 23:25:18 49° NNE 23:25:18 49° NNE 23:28:35 10° N
Helios 1B rocket 4.4 23:29:08 19° NW 23:29:08 19° NW 23:30:28 10° NW
Meteor 1-27 Rocket 4.1 23:32:34 54° E 23:32:34 54° E 23:38:04 10° NNE
USA 234 3.1 23:26:57 10° NE 23:33:31 79° SE 23:34:29 66° SSW
Cosmos 2221 3.5 23:35:23 42° NNW 23:35:23 42° NNW 23:38:25 10° N
CZ-2C R/B 3.5 23:30:14 10° NNE 23:35:48 57° E 23:35:48 57° E
ACS3 Solar Sail 3.3 23:32:36 10° NE 23:36:58 21° E 23:37:20 20° E
Cosmos 2279 Rocket 4.4 23:37:48 47° WSW 23:38:52 52° WNW 23:44:59 10° N
Meteor 1-14 Rocket 4.4 23:36:35 10° NNW 23:41:51 57° W 23:41:51 57° W
Cosmos 1898 Rocket 3.9 23:37:49 10° NNW 23:42:13 54° WNW 23:42:13 54° WNW
Cosmos 2297 Rocket 2.2 23:43:29 72° ENE 23:43:29 72° ENE 23:48:47 10° NNE
Meteor 2-20 4.2 23:46:32 81° SSE 23:46:49 84° E 23:52:56 10° N
ISS -0.6 23:47:09 10° NW 23:47:15 11° NW 23:47:15 11° NW
